[[{"header":{"parameterUnit":"m.s-1","parameterCategory":2,"la1":30.2991,"la2":30.254,"lo1":-89.0895,"lo2":-89.0444,"dy":0.0017,"dx":0.0017,"nx":28,"ny":28,"refTime":"2023-04-25T21:00:00:Z","depth":"0","parameterNumber":2,"parameterNumberName":"U-component_of_CURRENTS"},"data":[0,0,0,0,0,0,0,0,0,0,0,0,0,0,0,0,0,0,0,0,0,0,0,0,0,0,0,0,0,0,0,0,0,0,0,0,0,0,0,0,0,0,0,0,0,0,0,0,0,0,0,0,0,0,0,0,0,0,-0.253,-0.2531,0,-0.2502,-0.2501,-0.25,-0.2402,-0.2401,-0.2399,-0.2398,-0.2171,-0.2167,-0.2162,0,0,0,0,0,0,0,0,0,0,0,0,0,-0.2419,-0.2422,-0.253,-0.2531,-0.2531,-0.2502,-0.2501,-0.25,-0.2402,-0.2401,-0.2399,-0.2397,-0.2173,-0.2167,-0.2162,0,0,0,0,0,0,0,0,0,0,0,0,0,-0.2429,-0.2422,-0.253,-0.2485,-0.2481,-0.2502,-0.2501,-0.2499,-0.2403,-0.2401,-0.2398,-0.2396,-0.2175,-0.2168,-0.2161,-0.2162,0,0,-0.214,-0.2137,0,0,0,0,0,0,0,0,-0.2429,-0.2433,-0.2491,-0.2488,-0.2484,-0.246,-0.2379,-0.2379,-0.2403,-0.2424,-0.2398,-0.2395,-0.2256,-0.2243,-0.2234,-0.2152,-0.2142,-0.2139,-0.2135,-0.2132,-0.213,0,0,0,0,0,0,0,-0.2429,-0.2433,-0.2511,-0.2492,-0.2488,-0.2439,-0.2437,-0.2378,-0.2343,-0.2422,-0.2417,-0.2427,-0.2251,-0.2241,-0.2227,-0.2139,-0.2139,-0.2133,-0.2129,-0.2126,-0.2109,-0.2113,0,0,0,0,0,0,-0.2456,-0.2433,-0.2512,-0.2511,-0.2459,-0.2443,-0.2442,-0.2464,-0.2348,-0.2332,-0.2429,-0.2423,-0.2254,-0.2236,-0.2219,-0.2272,-0.2132,-0.2125,-0.2121,-0.2106,-0.211,-0.2114,0,0,0,0,0,0,-0.2453,-0.2463,-0.2513,-0.2476,-0.248,-0.2449,-0.2474,-0.2464,-0.2457,-0.2357,-0.2335,-0.2432,-0.2251,-0.2228,-0.2195,-0.2259,-0.2122,-0.2116,-0.2101,-0.2107,-0.2112,-0.2339,0,0,0,0,0,0,-0.2451,-0.2463,-0.248,-0.2479,-0.2484,-0.256,-0.2476,-0.2466,-0.247,-0.2461,-0.2352,-0.2329,-0.2248,-0.2206,-0.2188,-0.2247,-0.211,-0.2097,-0.2104,-0.2111,-0.2327,-0.2352,-0.2373,0,0,0,0,0,-0.2447,-0.2501,-0.2482,-0.2491,-0.2512,-0.2564,-0.2563,-0.2525,-0.2473,-0.2501,-0.2423,-0.2332,-0.2238,-0.2203,-0.2181,-0.224,-0.2093,-0.2102,-0.211,-0.2316,-0.2347,-0.2372,0,0,0,0,0,0,-0.2464,-0.2497,-0.2475,-0.2535,-0.2559,-0.2551,-0.2568,-0.2542,-0.2505,-0.2476,-0.2366,-0.2341,-0.2337,-0.2264,-0.2229,-0.2261,-0.2157,-0.2161,-0.2321,-0.2349,-0.2372,-0.2367,-0.2105,0,0,0,0,0,-0.2479,-0.2515,-0.2545,-0.2585,-0.2605,-0.2584,-0.2594,-0.2577,-0.2551,-0.2531,-0.2464,-0.2394,-0.2359,-0.2333,-0.2282,-0.2291,-0.2183,-0.2321,-0.2344,-0.2364,-0.235,-0.2298,-0.2314,-0.2142,-0.2142,-0.2142,0,0,-0.2488,-0.2515,-0.253,-0.2589,-0.259,-0.2667,-0.2583,-0.2619,-0.2665,-0.2511,-0.2532,-0.2463,-0.2379,-0.2397,-0.239,-0.234,-0.2353,-0.2375,-0.2393,-0.2366,-0.2309,-0.2325,-0.2339,-0.2148,-0.2147,-0.2146,0,0,-0.2562,-0.256,-0.2629,-0.2676,-0.2716,-0.2716,-0.2739,-0.275,-0.2733,-0.2752,-0.2663,-0.2642,-0.2577,-0.2551,-0.2522,-0.2643,-0.2475,-0.263,-0.2741,-0.2695,-0.2707,-0.2717,-0.2576,-0.2572,-0.2646,-0.2647,-0.2647,0,-0.2573,-0.2674,-0.2657,-0.2759,-0.2798,-0.2755,-0.2849,-0.2854,-0.2849,-0.2821,-0.2785,-0.2708,-0.2658,-0.2668,-0.2727,-0.2695,-0.2594,-0.2643,-0.2722,-0.273,-0.2736,-0.2589,-0.2581,-0.2659,-0.2657,-0.2656,-0.2655,0,-0.2711,-0.2803,-0.2854,-0.2957,-0.2992,-0.307,-0.3083,-0.3089,-0.3047,-0.3024,-0.3004,-0.2945,-0.2888,-0.2903,-0.2851,-0.2888,-0.2775,-0.2754,-0.2648,-0.2767,-0.2604,-0.2592,-0.2676,-0.2672,-0.2668,-0.2665,0,0,-0.2718,-0.2914,-0.2935,-0.2993,-0.3103,-0.3124,-0.3206,-0.3231,-0.3214,-0.3215,-0.3188,-0.32,-0.3123,-0.3088,-0.3033,-0.3014,-0.2995,-0.2917,-0.2909,-0.2767,-0.2805,-0.2739,-0.2716,-0.2983,-0.2983,-0.2983,-0.2664,0,-0.2833,-0.3046,-0.3109,-0.326,-0.3355,-0.3344,-0.3397,-0.3391,-0.3356,-0.3319,-0.326,-0.3221,-0.3211,-0.3168,-0.3168,-0.3003,-0.2976,-0.3077,-0.2717,-0.2704,-0.2626,-0.2708,-0.2608,-0.2318,-0.265,-0.2648,-0.2646,0,-0.2953,-0.3074,-0.327,-0.3367,-0.3394,-0.3464,-0.3448,-0.3496,-0.3451,-0.3408,-0.338,-0.3296,-0.326,-0.3242,-0.3064,-0.3115,-0.2997,-0.2886,-0.2871,-0.2716,-0.2618,-0.2259,-0.2281,-0.2263,-0.2625,-0.2627,-0.2628,0,-0.294,-0.3158,-0.3294,-0.3355,-0.3482,-0.3499,-0.3525,-0.3508,-0.3462,-0.3456,-0.3367,-0.3342,-0.3223,-0.315,-0.2952,-0.2993,-0.2701,-0.2722,-0.2546,-0.2534,-0.233,-0.2303,-0.2284,-0.2632,-0.2633,-0.2634,-0.2635,0,-0.305,-0.3137,-0.329,-0.3374,-0.3411,-0.3494,-0.3489,-0.3501,-0.3462,-0.3322,-0.34,-0.3256,-0.3193,-0.301,-0.2919,-0.2657,-0.2673,-0.2551,-0.2471,-0.2405,-0.239,-0.2266,-0.2291,-0.2622,-0.2625,-0.2627,-0.2629,0,-0.3015,-0.3175,-0.3277,-0.3408,-0.3429,-0.3429,-0.343,-0.3369,-0.3396,-0.3211,-0.3186,-0.3108,-0.2906,-0.2811,-0.2595,-0.2527,-0.2296,-0.227,-0.2157,-0.2077,-0.1962,-0.2003,-0.1832,-0.1791,-0.2026,-0.2023,-0.202,0,-0.3013,-0.3094,-0.3223,-0.3217,-0.3277,-0.3299,-0.3255,-0.3318,-0.3221,-0.3053,-0.2904,-0.2746,-0.2508,-0.2242,-0.2205,-0.2037,-0.2091,-0.1844,-0.1976,-0.1942,-0.1927,-0.1977,-0.1961,-0.1748,-0.1743,-0.174,-0.1737,0,-0.2923,-0.2971,-0.3031,-0.3038,-0.3025,-0.2967,-0.2925,-0.284,-0.2784,-0.2614,-0.2279,-0.21,-0.1978,-0.18,-0.1756,-0.1692,-0.1828,-0.1761,-0.1762,-0.1752,-0.176,-0.1685,-0.1915,-0.1703,-0.1706,-0.1708,-0.171,-0.1712,-0.2736,-0.2728,-0.2777,-0.2742,-0.2701,-0.2514,-0.2378,-0.2271,-0.2027,-0.1658,-0.1669,-0.1323,-0.1389,-0.1359,-0.1344,-0.143,-0.1543,-0.1406,-0.145,-0.1498,-0.1522,-0.1662,-0.1376,-0.1377,-0.1379,-0.138,-0.1381,0,-0.2438,-0.2456,-0.2436,-0.2349,-0.2154,-0.2238,-0.2019,-0.1814,-0.141,-0.1161,-0.0838,-0.0636,-0.0678,-0.0891,-0.1136,-0.1114,-0.1154,-0.113,-0.1188,-0.1186,-0.1296,-0.1356,-0.1011,-0.1011,-0.1011,-0.1011,-0.1011,-0.1011,-0.2276,-0.2173,-0.2187,-0.1805,-0.1715,-0.1375,-0.1195,-0.0933,-0.0732,-0.0272,-0.0068,0.0002,-0.0351,-0.0749,-0.0979,-0.0986,-0.1011,-0.0973,-0.1039,-0.1145,-0.1176,-0.1206,-0.1271,-0.0914,-0.0914,-0.0883,-0.0883,-0.0883]},{"header":{"parameterUnit":"m.s-1","parameterCategory":2,"la1":30.2991,"la2":30.254,"lo1":-89.0895,"lo2":-89.0444,"dy":0.0017,"dx":0.0017,"nx":28,"ny":28,"refTime":"2023-04-25T21:00:00:Z","depth":"0","parameterNumber":3,"parameterNumberName":"V-component_of_CURRENTS"},"data":[0,0,0,0,0,0,0,0,0,0,0,0,0,0,0,0,0,0,0,0,0,0,0,0,0,0,0,0,0,0,0,0,0,0,0,0,0,0,0,0,0,0,0,0,0,0,0,0,0,0,0,0,0,0,0,0,0,0,0.0315,0.0317,0,0.0523,0.0526,0.0528,0.0622,0.0622,0.0621,0.0621,0.0778,0.0782,0.0786,0,0,0,0,0,0,0,0,0,0,0,0,0,0.0199,0.0199,0.0315,0.0318,0.032,0.0523,0.0526,0.0529,0.0622,0.0622,0.0621,0.0621,0.0776,0.0781,0.0787,0,0,0,0,0,0,0,0,0,0,0,0,0,0.0312,0.0199,0.0315,0.0391,0.04,0.0522,0.0526,0.0529,0.0622,0.0622,0.0621,0.0621,0.0774,0.0781,0.0787,0.0836,0,0,0.0808,0.081,0,0,0,0,0,0,0,0,0.0305,0.0316,0.0377,0.0386,0.0396,0.0546,0.0542,0.0629,0.0622,0.0538,0.0621,0.0621,0.0695,0.0709,0.075,0.0843,0.085,0.0808,0.0812,0.0815,0.0817,0,0,0,0,0,0,0,0.0297,0.0309,0.0398,0.038,0.0391,0.0484,0.0497,0.056,0.0616,0.0545,0.0552,0.0575,0.07,0.0743,0.0754,0.0852,0.0808,0.0814,0.0818,0.0821,0.1013,0.1014,0,0,0,0,0,0,0.026,0.03,0.0391,0.0404,0.0348,0.0485,0.0501,0.0498,0.0616,0.0634,0.0575,0.0579,0.0732,0.0746,0.076,0.0792,0.0815,0.0821,0.0825,0.1012,0.1013,0.1015,0,0,0,0,0,0,0.0257,0.0265,0.0383,0.0359,0.038,0.0486,0.0484,0.0503,0.0542,0.064,0.0657,0.0594,0.0732,0.075,0.0814,0.08,0.0824,0.083,0.1011,0.1012,0.1014,0.0878,0,0,0,0,0,0,0.0252,0.0262,0.0243,0.0355,0.038,0.0433,0.0485,0.0507,0.0556,0.0563,0.0661,0.0676,0.0733,0.0803,0.082,0.0809,0.0835,0.1009,0.1011,0.1013,0.0881,0.0875,0.0869,0,0,0,0,0,0.0247,0.0211,0.024,0.0251,0.035,0.0433,0.0454,0.0531,0.0557,0.0565,0.064,0.0673,0.0829,0.0809,0.0829,0.082,0.1008,0.1011,0.1013,0.0883,0.0876,0.0869,0,0,0,0,0,0,0.0145,0.0221,0.0254,0.0241,0.0324,0.0448,0.0458,0.0523,0.0593,0.0592,0.0686,0.0706,0.0762,0.0819,0.0795,0.0888,0.0925,0.0932,0.082,0.0814,0.0808,0.077,0.0841,0,0,0,0,0,0.0114,0.0104,0.0211,0.0199,0.0233,0.0347,0.0389,0.0446,0.053,0.0561,0.0635,0.0717,0.0792,0.0821,0.0898,0.094,0.0984,0.0953,0.0947,0.0941,0.0928,0.0993,0.099,0.1023,0.1023,0.1023,0,0,0.0069,0.0111,0.0104,0.0177,0.0243,0.0278,0.0369,0.042,0.0454,0.0565,0.0615,0.07,0.0804,0.0857,0.0886,0.0895,0.0954,0.0944,0.0937,0.0928,0.0995,0.0992,0.0988,0.1025,0.1024,0.1024,0,0,-0.0017,0.0014,-0.0014,0.005,0.014,0.0215,0.0223,0.0345,0.0399,0.0473,0.0561,0.0633,0.0749,0.0814,0.0865,0.0876,0.0929,0.0906,0.0831,0.0894,0.089,0.0888,0.0918,0.0919,0.0892,0.0892,0.0891,0,-0.0076,-0.0094,-0.0005,0.0004,0.0035,0.0174,0.017,0.0257,0.0385,0.0426,0.0466,0.0648,0.0728,0.0797,0.0804,0.0857,0.0894,0.0837,0.088,0.0879,0.0879,0.0911,0.0914,0.0885,0.0886,0.0887,0.0887,0,-0.0165,-0.0169,-0.0177,-0.0131,-0.0079,-0.0063,0.0068,0.0137,0.0222,0.0308,0.0408,0.0534,0.0638,0.0679,0.0745,0.0788,0.0814,0.0866,0.0879,0.0866,0.0902,0.0907,0.0876,0.0879,0.0881,0.0882,0,0,-0.032,-0.0263,-0.026,-0.0251,-0.0155,-0.0111,-0.0053,0.0042,0.0103,0.0217,0.0286,0.0411,0.0489,0.0553,0.0649,0.0701,0.073,0.0768,0.0774,0.0764,0.0842,0.0784,0.0785,0.0784,0.0785,0.0786,0.0858,0,-0.042,-0.0462,-0.0391,-0.0399,-0.0406,-0.0258,-0.0199,-0.0085,0.0033,0.0146,0.0275,0.0383,0.0439,0.0507,0.0556,0.0719,0.0743,0.0704,0.0887,0.0892,0.0814,0.0789,0.0859,0.0922,0.0864,0.0865,0.0865,0,-0.0527,-0.054,-0.0597,-0.0517,-0.05,-0.0475,-0.0347,-0.0273,-0.0086,0.0027,0.0131,0.0266,0.0374,0.0442,0.0611,0.0584,0.0682,0.0785,0.0792,0.0787,0.0844,0.0937,0.0936,0.1038,0.0875,0.0874,0.0873,0,-0.0683,-0.0665,-0.0726,-0.0706,-0.0602,-0.0578,-0.0514,-0.0342,-0.0208,-0.0058,0.0074,0.0184,0.0306,0.0423,0.06,0.0625,0.078,0.0854,0.0875,0.0873,0.0992,0.0997,0.1085,0.0941,0.0941,0.0941,0.0941,0,-0.0825,-0.0848,-0.0801,-0.0826,-0.0823,-0.0718,-0.0635,-0.0531,-0.0309,-0.0114,-0.0017,0.0164,0.0315,0.0443,0.0569,0.0707,0.0743,0.0844,0.0884,0.0945,0.0944,0.1089,0.1129,0.0944,0.0943,0.0943,0.0942,0,-0.0968,-0.0954,-0.0986,-0.0929,-0.09,-0.0902,-0.0675,-0.0515,-0.0385,-0.012,-0.0052,0.0167,0.0305,0.0405,0.0607,0.0684,0.0877,0.0848,0.0873,0.0912,0.1031,0.106,0.1142,0.1202,0.0912,0.0911,0.091,0,-0.1044,-0.1094,-0.107,-0.1021,-0.0994,-0.0926,-0.0761,-0.0575,-0.0356,-0.0066,0.0106,0.0231,0.0446,0.0589,0.0657,0.0764,0.0852,0.0894,0.0953,0.1015,0.1082,0.1084,0.113,0.1071,0.1072,0.1072,0.1073,0,-0.1164,-0.1159,-0.1173,-0.108,-0.0957,-0.0763,-0.0559,-0.0406,-0.0095,0.0133,0.0467,0.0612,0.0672,0.0782,0.0748,0.0849,0.0965,0.0904,0.101,0.1218,0.1195,0.128,0.1016,0.1076,0.1076,0.1075,0.1075,0.1075,-0.121,-0.1242,-0.1198,-0.1072,-0.0879,-0.0555,-0.0386,-0.0099,0.0224,0.0647,0.0769,0.1085,0.1048,0.1015,0.1003,0.1026,0.1004,0.1154,0.1186,0.1182,0.1224,0.0907,0.0975,0.0974,0.0973,0.0973,0.0972,0,-0.1226,-0.1195,-0.1115,-0.091,-0.0572,-0.0497,-0.0132,0.0105,0.0485,0.0876,0.1226,0.1581,0.152,0.1408,0.1302,0.1348,0.1391,0.139,0.1484,0.1522,0.1312,0.1303,0.1396,0.1396,0.1396,0.1396,0.1396,0.1396,-0.1219,-0.1171,-0.11,-0.0604,-0.038,0.0055,0.0275,0.0527,0.0808,0.1396,0.1774,0.2025,0.1958,0.1727,0.1639,0.1653,0.1767,0.1703,0.173,0.1664,0.1648,0.1631,0.1634,0.1795,0.1796,0.1984,0.1986,0.1988]}],[{"header":{"parameterUnit":"m.s-1","parameterCategory":2,"la1":30.2991,"la2":30.254,"lo1":-89.0895,"lo2":-89.0444,"dy":0.0017,"dx":0.0017,"nx":28,"ny":28,"refTime":"2023-04-25T21:00:00:Z","depth":"2","parameterNumber":2,"parameterNumberName":"U-component_of_CURRENTS"},"data":[0,0,0,0,0,0,0,0,0,0,0,0,0,0,0,0,0,0,0,0,0,0,0,0,0,0,0,0,0,0,0,0,0,0,0,0,0,0,0,0,0,0,0,0,0,0,0,0,0,0,0,0,0,0,0,0,0,0,-0.32,-0.3201,0,-0.3223,-0.3223,-0.3223,-0.3189,-0.3189,-0.3188,-0.3187,-0.3095,-0.3093,-0.3092,0,0,0,0,0,0,0,0,0,0,0,0,0,-0.3068,-0.3071,-0.32,-0.3201,-0.3201,-0.3223,-0.3223,-0.3223,-0.319,-0.3189,-0.3188,-0.3187,-0.3095,-0.3093,-0.3091,0,0,0,0,0,0,0,0,0,0,0,0,0,-0.3109,-0.3072,-0.32,-0.319,-0.3189,-0.3223,-0.3223,-0.3223,-0.319,-0.3189,-0.3187,-0.3186,-0.3096,-0.3094,-0.3091,-0.3102,0,0,-0.3084,-0.3083,0,0,0,0,0,0,0,0,-0.3107,-0.3113,-0.3191,-0.3191,-0.319,-0.3205,-0.3144,-0.3178,-0.319,-0.3186,-0.3187,-0.3185,-0.3124,-0.312,-0.3123,-0.3097,-0.3093,-0.3083,-0.3082,-0.3081,-0.308,0,0,0,0,0,0,0,-0.3104,-0.3112,-0.3206,-0.3192,-0.3191,-0.3165,-0.3169,-0.315,-0.3157,-0.3186,-0.3185,-0.3193,-0.3123,-0.3126,-0.3121,-0.3092,-0.3083,-0.3081,-0.308,-0.3079,-0.3032,-0.3032,0,0,0,0,0,0,-0.3114,-0.311,-0.3205,-0.3207,-0.3149,-0.3169,-0.3173,-0.3199,-0.316,-0.3155,-0.3195,-0.3192,-0.3131,-0.3124,-0.3117,-0.3084,-0.3081,-0.3078,-0.3077,-0.3032,-0.3032,-0.3033,0,0,0,0,0,0,-0.3111,-0.3123,-0.3204,-0.316,-0.3169,-0.3173,-0.3201,-0.32,-0.3192,-0.3168,-0.316,-0.3187,-0.3129,-0.3121,-0.3094,-0.3082,-0.3077,-0.3075,-0.3032,-0.3032,-0.3032,-0.3046,0,0,0,0,0,0,-0.3107,-0.3122,-0.314,-0.3162,-0.3172,-0.3228,-0.3203,-0.3202,-0.3202,-0.3198,-0.3159,-0.315,-0.3128,-0.3098,-0.3091,-0.3078,-0.3073,-0.3031,-0.3032,-0.3032,-0.3045,-0.3046,-0.3048,0,0,0,0,0,-0.3103,-0.3149,-0.3141,-0.3152,-0.3199,-0.3229,-0.3232,-0.3226,-0.3203,-0.321,-0.3176,-0.315,-0.3096,-0.3096,-0.3089,-0.3074,-0.3031,-0.3032,-0.3032,-0.3044,-0.3046,-0.3048,0,0,0,0,0,0,-0.3111,-0.3151,-0.3142,-0.3199,-0.3209,-0.3224,-0.3241,-0.3225,-0.3206,-0.3197,-0.3155,-0.3145,-0.312,-0.31,-0.3101,-0.3065,-0.3059,-0.3058,-0.3071,-0.3072,-0.3073,-0.3046,-0.3071,0,0,0,0,0,-0.312,-0.3156,-0.3179,-0.3219,-0.3231,-0.3228,-0.3236,-0.3232,-0.3224,-0.3214,-0.3185,-0.3152,-0.3121,-0.3098,-0.3082,-0.3058,-0.2988,-0.3045,-0.3047,-0.3048,-0.3021,-0.2931,-0.292,-0.3034,-0.3034,-0.3034,0,0,-0.3132,-0.316,-0.3178,-0.3221,-0.323,-0.3234,-0.3229,-0.3253,-0.3234,-0.3206,-0.3176,-0.3163,-0.312,-0.3098,-0.3084,-0.3073,-0.2975,-0.3048,-0.305,-0.3022,-0.293,-0.2918,-0.2908,-0.3035,-0.3035,-0.3035,0,0,-0.316,-0.3201,-0.3223,-0.3234,-0.3254,-0.3254,-0.3256,-0.3267,-0.3252,-0.3235,-0.3203,-0.317,-0.3142,-0.3097,-0.3069,-0.3065,-0.2995,-0.3076,-0.3045,-0.2958,-0.2947,-0.2936,-0.2809,-0.2787,-0.3065,-0.3065,-0.3065,0,-0.3161,-0.3191,-0.3232,-0.3244,-0.324,-0.3255,-0.3247,-0.3248,-0.324,-0.3207,-0.3227,-0.3146,-0.3128,-0.3046,-0.3059,-0.3062,-0.2995,-0.3041,-0.2956,-0.2944,-0.2933,-0.2806,-0.2781,-0.3066,-0.3066,-0.3066,-0.3066,0,-0.3181,-0.3199,-0.322,-0.3225,-0.3235,-0.3244,-0.3245,-0.3239,-0.3225,-0.32,-0.3144,-0.3127,-0.3063,-0.3069,-0.3065,-0.2979,-0.295,-0.2976,-0.2945,-0.2922,-0.279,-0.2763,-0.3067,-0.3067,-0.3067,-0.3066,0,0,-0.3179,-0.3217,-0.322,-0.3189,-0.3218,-0.3212,-0.3205,-0.3168,-0.3101,-0.3122,-0.3021,-0.3021,-0.3009,-0.2978,-0.2969,-0.2906,-0.2784,-0.2916,-0.2911,-0.2777,-0.2555,-0.2543,-0.2513,-0.2804,-0.28,-0.2797,-0.2486,0,-0.3157,-0.315,-0.319,-0.3154,-0.3128,-0.3148,-0.3118,-0.3091,-0.3059,-0.2977,-0.2959,-0.2887,-0.2974,-0.2933,-0.2893,-0.2806,-0.2721,-0.2863,-0.2609,-0.2599,-0.2582,-0.2485,-0.2355,-0.2069,-0.246,-0.2456,-0.2452,0,-0.3138,-0.3123,-0.3086,-0.3053,-0.3047,-0.3041,-0.2958,-0.2943,-0.2866,-0.2837,-0.2793,-0.2764,-0.2684,-0.2763,-0.2602,-0.2693,-0.2625,-0.2566,-0.2553,-0.2514,-0.254,-0.2162,-0.2007,-0.2408,-0.2412,-0.2415,-0.2418,0,-0.3034,-0.3047,-0.2996,-0.2989,-0.2964,-0.2947,-0.2949,-0.289,-0.284,-0.2745,-0.2674,-0.2598,-0.2526,-0.2463,-0.2419,-0.2482,-0.2216,-0.2275,-0.218,-0.2176,-0.1997,-0.1986,-0.2126,-0.2127,-0.2128,-0.2128,-0.2129,0,-0.2949,-0.2911,-0.2948,-0.2897,-0.2833,-0.2869,-0.2787,-0.2769,-0.2706,-0.2623,-0.2608,-0.2506,-0.2455,-0.2332,-0.2311,-0.216,-0.2129,-0.2122,-0.2086,-0.2,-0.1993,-0.2255,-0.2275,-0.2117,-0.2119,-0.2122,-0.2124,0,-0.2804,-0.2838,-0.2783,-0.2776,-0.2772,-0.2737,-0.2735,-0.2661,-0.2636,-0.2521,-0.2491,-0.2376,-0.2228,-0.2158,-0.1987,-0.1987,-0.1863,-0.1822,-0.1715,-0.1676,-0.1889,-0.1913,-0.1618,-0.1615,-0.1612,-0.161,-0.1608,0,-0.2713,-0.2663,-0.2676,-0.265,-0.265,-0.2627,-0.2591,-0.2615,-0.2559,-0.2454,-0.2375,-0.2201,-0.2067,-0.1803,-0.1735,-0.1591,-0.1718,-0.1413,-0.1533,-0.1837,-0.1832,-0.186,-0.1887,-0.1264,-0.126,-0.1256,-0.1253,0,-0.2476,-0.2512,-0.2442,-0.2444,-0.2433,-0.2383,-0.2369,-0.2329,-0.2345,-0.2284,-0.2151,-0.2032,-0.1811,-0.158,-0.142,-0.136,-0.1438,-0.1336,-0.1597,-0.1474,-0.1495,-0.1496,-0.1533,-0.122,-0.1223,-0.1225,-0.1227,-0.1229,-0.2284,-0.2217,-0.2169,-0.215,-0.2157,-0.2079,-0.1987,-0.2013,-0.1928,-0.1835,-0.1927,-0.1748,-0.1677,-0.1342,-0.1223,-0.1093,-0.1205,-0.1157,-0.117,-0.1186,-0.1262,-0.1284,-0.0977,-0.0979,-0.0981,-0.0982,-0.0983,0,-0.1987,-0.1922,-0.1872,-0.1796,-0.1713,-0.1819,-0.1754,-0.1656,-0.1552,-0.1624,-0.1588,-0.1412,-0.1239,-0.113,-0.0868,-0.0823,-0.0838,-0.0791,-0.081,-0.0841,-0.087,-0.0934,-0.0558,-0.0558,-0.0557,-0.0556,0,0,-0.1806,-0.1625,-0.1597,-0.1338,-0.1317,-0.1147,-0.109,-0.1055,-0.1079,-0.1039,-0.1041,-0.1268,-0.1168,-0.0953,-0.0847,-0.0636,-0.0753,-0.0606,-0.0941,-0.0999,-0.1027,-0.1063,-0.1195,0,0,0,0,0]},{"header":{"parameterUnit":"m.s-1","parameterCategory":2,"la1":30.2991,"la2":30.254,"lo1":-89.0895,"lo2":-89.0444,"dy":0.0017,"dx":0.0017,"nx":28,"ny":28,"refTime":"2023-04-25T21:00:00:Z","depth":"2","parameterNumber":3,"parameterNumberName":"V-component_of_CURRENTS"},"data":[0,0,0,0,0,0,0,0,0,0,0,0,0,0,0,0,0,0,0,0,0,0,0,0,0,0,0,0,0,0,0,0,0,0,0,0,0,0,0,0,0,0,0,0,0,0,0,0,0,0,0,0,0,0,0,0,0,0,-0.0046,-0.0045,0,0.0055,0.0056,0.0057,-0.0022,-0.0025,-0.0028,-0.003,-0.0077,-0.0076,-0.0074,0,0,0,0,0,0,0,0,0,0,0,0,0,-0.0269,-0.0265,-0.0047,-0.0045,-0.0043,0.0055,0.0056,0.0057,-0.0021,-0.0025,-0.0028,-0.0032,-0.0078,-0.0076,-0.0074,0,0,0,0,0,0,0,0,0,0,0,0,0,-0.0175,-0.0264,-0.0047,-0.0067,-0.0068,0.0055,0.0056,0.0057,-0.002,-0.0025,-0.0029,-0.0034,-0.0078,-0.0076,-0.0074,0.0031,0,0,-0.0067,-0.0066,0,0,0,0,0,0,0,0,-0.018,-0.0167,-0.0066,-0.0066,-0.0066,0.0003,-0.004,0.0042,-0.0019,-0.0042,-0.0031,-0.0036,-0.0058,-0.0058,-0.0032,0.0029,0.0027,-0.0066,-0.0065,-0.0064,-0.0063,0,0,0,0,0,0,0,-0.0186,-0.0171,-0.001,-0.0064,-0.0064,-0.0068,-0.0061,-0.0024,-0.0032,-0.0041,-0.0045,-0.0026,-0.0061,-0.0034,-0.0034,0.0026,-0.0067,-0.0064,-0.0063,-0.0062,0.0041,0.0042,0,0,0,0,0,0,-0.0187,-0.0177,-0.0014,-0.0007,-0.0131,-0.006,-0.0052,-0.0018,-0.0029,-0.0033,-0.0022,-0.003,-0.0036,-0.0037,-0.0036,-0.0013,-0.0064,-0.0062,-0.0061,0.004,0.0041,0.0043,0,0,0,0,0,0,-0.0192,-0.0172,-0.0018,-0.0088,-0.0069,-0.0052,-0.0013,-0.0013,-0.0024,-0.0013,-0.0022,-0.0037,-0.0039,-0.004,-0.0039,-0.0013,-0.0061,-0.0059,0.0038,0.004,0.0042,0.0098,0,0,0,0,0,0,-0.0198,-0.0174,-0.0164,-0.0087,-0.0064,0.0043,-0.0008,-0.0008,-0.0001,-0.0011,-0.0026,-0.0034,-0.0043,-0.0043,-0.0037,-0.001,-0.0057,0.0037,0.0039,0.0042,0.0094,0.0101,0.0108,0,0,0,0,0,-0.0206,-0.0159,-0.0163,-0.0144,-0.0045,0.0045,0.0056,0.0049,0.0002,0.0017,-0.0013,-0.0035,-0.0023,-0.0039,-0.0033,-0.0005,0.0035,0.0038,0.0041,0.0091,0.01,0.0107,0,0,0,0,0,0,-0.0251,-0.016,-0.0164,-0.0094,-0.0039,0.0032,0.0053,0.0046,0.0042,0.0011,-0.001,-0.0016,-0.0003,-0.0007,-0.0024,0.0031,0.0002,0.0006,0.0037,0.0046,0.0052,0.0051,-0.0055,0,0,0,0,0,-0.025,-0.0202,-0.0118,-0.0071,-0.0037,0.0001,0.0028,0.003,0.0048,0.004,0.0024,0.0012,0.003,0.0027,0.0041,0.0082,0.0091,0.0101,0.0108,0.0114,0.0117,0.0194,0.0208,0.0053,0.0053,0.0053,0,0,-0.026,-0.0201,-0.018,-0.0079,-0.0039,0.0015,0.0004,0.0054,0.0073,0.004,0.0036,0.0038,0.0046,0.0079,0.0085,0.0068,0.0155,0.0117,0.0122,0.0123,0.0198,0.0214,0.0227,0.0055,0.0054,0.0054,0,0,-0.0247,-0.0194,-0.0155,-0.0099,-0.0027,0.0016,0.0024,0.0083,0.008,0.0111,0.008,0.0098,0.0115,0.0134,0.0146,0.0206,0.019,0.0196,0.0231,0.0305,0.0319,0.0331,0.0329,0.0341,0.0198,0.0198,0.0198,0,-0.0277,-0.0207,-0.0133,-0.0077,-0.0041,0.001,0.0048,0.0089,0.0123,0.0135,0.0104,0.0154,0.0155,0.0213,0.0219,0.0225,0.0229,0.0199,0.0316,0.0328,0.034,0.0335,0.0347,0.0201,0.0201,0.02,0.02,0,-0.0236,-0.0187,-0.015,-0.0072,-0.0015,0.0035,0.0109,0.0138,0.014,0.0172,0.0218,0.024,0.0264,0.0278,0.0263,0.0343,0.0304,0.0318,0.0296,0.0359,0.0349,0.0361,0.0205,0.0204,0.0203,0.0202,0,0,-0.031,-0.0158,-0.0157,-0.0128,-0.0016,0.0033,0.0098,0.0175,0.0202,0.0247,0.0287,0.034,0.0345,0.0359,0.036,0.0419,0.0494,0.0392,0.0394,0.0389,0.0599,0.0547,0.0553,0.0527,0.053,0.0533,0.0546,0,-0.0326,-0.0241,-0.0152,-0.0094,-0.005,0.0039,0.0097,0.0171,0.0229,0.0286,0.0349,0.0387,0.0381,0.0386,0.0455,0.0477,0.0532,0.0484,0.0538,0.0538,0.0488,0.057,0.0557,0.0567,0.0557,0.0559,0.0561,0,-0.035,-0.0282,-0.023,-0.0113,-0.0085,-0.0043,0.0054,0.012,0.0243,0.0287,0.0367,0.0411,0.0487,0.0485,0.0587,0.0549,0.0577,0.0606,0.0608,0.0551,0.0511,0.0511,0.0589,0.058,0.0579,0.0577,0.0576,0,-0.048,-0.0352,-0.0322,-0.0283,-0.0133,-0.0105,-0.0033,0.0094,0.0148,0.0281,0.0324,0.0442,0.0467,0.0566,0.0587,0.0602,0.0681,0.0721,0.0706,0.0698,0.0695,0.0683,0.0828,0.0828,0.0828,0.0828,0.0828,0,-0.055,-0.0525,-0.0387,-0.0371,-0.0335,-0.0199,-0.0149,-0.005,0.0084,0.0135,0.0295,0.0349,0.0492,0.0545,0.0601,0.0652,0.0695,0.0724,0.0724,0.0707,0.0697,0.0717,0.0705,0.0828,0.0828,0.0828,0.0828,0,-0.0704,-0.0608,-0.0572,-0.0439,-0.0401,-0.0388,-0.0242,-0.02,-0.0049,0.0025,0.0061,0.0262,0.0355,0.0455,0.0581,0.0636,0.0712,0.0715,0.0635,0.0628,0.0681,0.067,0.0765,0.0764,0.0763,0.0763,0.0762,0,-0.0769,-0.0768,-0.0671,-0.066,-0.0608,-0.0546,-0.0505,-0.0319,-0.0273,-0.0046,-0.0041,0.012,0.0246,0.041,0.0528,0.0639,0.0643,0.0662,0.0735,0.0697,0.0687,0.0678,0.0669,0.0732,0.0731,0.073,0.073,0,-0.0896,-0.0879,-0.085,-0.0828,-0.0801,-0.0747,-0.0675,-0.065,-0.0448,-0.0352,-0.0181,-0.0019,0.0218,0.04,0.0526,0.0587,0.0659,0.0653,0.0673,0.074,0.0665,0.0654,0.0648,0.0723,0.0724,0.0725,0.0725,0.0725,-0.1011,-0.1039,-0.1004,-0.0981,-0.0951,-0.093,-0.089,-0.0805,-0.0713,-0.0476,-0.033,-0.0041,0.0164,0.042,0.0512,0.0606,0.0645,0.0683,0.0686,0.069,0.0674,0.0602,0.0641,0.0641,0.0641,0.0641,0.0641,0,-0.1119,-0.1118,-0.1133,-0.1086,-0.1068,-0.1018,-0.0969,-0.0894,-0.0791,-0.0536,-0.0295,-0.0084,0.0164,0.0368,0.0548,0.0656,0.0678,0.0641,0.0669,0.0674,0.0679,0.0664,0.0627,0.0627,0.0627,0.0628,0,0,-0.1167,-0.1198,-0.1188,-0.1166,-0.1138,-0.1086,-0.1055,-0.0946,-0.0753,-0.0496,-0.026,0.0034,0.0251,0.0333,0.0466,0.0582,0.0605,0.0576,0.058,0.0607,0.0611,0.0694,0.0674,0,0,0,0,0]}],[{"header":{"parameterUnit":"m.s-1","parameterCategory":2,"la1":30.2991,"la2":30.254,"lo1":-89.0895,"lo2":-89.0444,"dy":0.0017,"dx":0.0017,"nx":28,"ny":28,"refTime":"2023-04-25T21:00:00:Z","depth":"4","parameterNumber":2,"parameterNumberName":"U-component_of_CURRENTS"},"data":[0,0,0,0,0,0,0,0,0,0,0,0,0,0,0,0,0,0,0,0,0,0,0,0,0,0,0,0,0,0,0,0,0,0,0,0,0,0,0,0,0,0,0,0,0,0,0,0,0,0,0,0,0,0,0,0,0,0,-0.0948,-0.0949,0,-0.0992,-0.0992,-0.0992,-0.1,-0.1,-0.0999,-0.0999,-0.1092,-0.1095,-0.1097,0,0,0,0,0,0,0,0,0,0,0,0,0,-0.086,-0.0862,-0.0948,-0.0949,-0.095,-0.0991,-0.0992,-0.0993,-0.1,-0.1,-0.0999,-0.0999,-0.1091,-0.1094,-0.1098,0,0,0,0,0,0,0,0,0,0,0,0,0,-0.09,-0.0862,-0.0948,-0.0959,-0.096,-0.0991,-0.0992,-0.0993,-0.1,-0.1,-0.0999,-0.0999,-0.109,-0.1094,-0.1098,-0.1133,0,0,-0.1111,-0.1112,0,0,0,0,0,0,0,0,-0.0898,-0.0903,-0.0957,-0.0958,-0.096,-0.099,-0.0995,-0.1042,-0.1,-0.0985,-0.0999,-0.0999,-0.1063,-0.1069,-0.1077,-0.1138,-0.1142,-0.1111,-0.1114,-0.1115,-0.1117,0,0,0,0,0,0,0,-0.0895,-0.0901,-0.0965,-0.0957,-0.0959,-0.0957,-0.0962,-0.1004,-0.1027,-0.0986,-0.0987,-0.0992,-0.1064,-0.1073,-0.108,-0.1143,-0.1111,-0.1115,-0.1117,-0.1119,-0.1273,-0.1274,0,0,0,0,0,0,-0.0892,-0.0899,-0.0964,-0.0966,-0.0927,-0.0959,-0.0965,-0.0981,-0.1025,-0.1031,-0.0993,-0.0992,-0.1066,-0.1075,-0.1083,-0.1171,-0.1115,-0.1119,-0.1122,-0.1271,-0.1273,-0.1275,0,0,0,0,0,0,-0.089,-0.0898,-0.0962,-0.0933,-0.0941,-0.0961,-0.0979,-0.0982,-0.1005,-0.103,-0.1037,-0.1014,-0.1066,-0.1077,-0.1136,-0.1173,-0.1121,-0.1125,-0.1269,-0.1272,-0.1274,-0.1319,0,0,0,0,0,0,-0.0888,-0.0897,-0.092,-0.0933,-0.0943,-0.0979,-0.0979,-0.0983,-0.1008,-0.1009,-0.105,-0.1057,-0.1067,-0.113,-0.114,-0.1178,-0.1128,-0.1267,-0.127,-0.1273,-0.1316,-0.1323,-0.1329,0,0,0,0,0,-0.0885,-0.0906,-0.0921,-0.093,-0.097,-0.098,-0.0984,-0.0996,-0.101,-0.1016,-0.1056,-0.1057,-0.1156,-0.1135,-0.1147,-0.1186,-0.1266,-0.1269,-0.1273,-0.1313,-0.1321,-0.1329,0,0,0,0,0,0,-0.0877,-0.091,-0.0926,-0.0957,-0.097,-0.0981,-0.0998,-0.1009,-0.1046,-0.1065,-0.1083,-0.1093,-0.1156,-0.1167,-0.1143,-0.1238,-0.121,-0.1216,-0.1236,-0.1244,-0.1251,-0.1218,-0.1132,0,0,0,0,0,-0.0889,-0.0916,-0.0937,-0.0963,-0.0974,-0.0994,-0.1007,-0.1021,-0.1048,-0.1064,-0.1095,-0.1137,-0.1178,-0.1207,-0.124,-0.13,-0.1263,-0.1332,-0.1338,-0.1344,-0.1325,-0.1303,-0.1305,-0.1287,-0.1287,-0.1286,0,0,-0.0894,-0.0916,-0.0933,-0.0964,-0.0981,-0.0998,-0.1,-0.103,-0.1052,-0.1073,-0.1126,-0.1164,-0.1199,-0.1259,-0.1289,-0.1276,-0.133,-0.1348,-0.1353,-0.133,-0.1307,-0.1309,-0.131,-0.1289,-0.1289,-0.1288,0,0,-0.0894,-0.0939,-0.0952,-0.0964,-0.0997,-0.1021,-0.1032,-0.1064,-0.1086,-0.1138,-0.1165,-0.1207,-0.1281,-0.1299,-0.132,-0.1382,-0.1364,-0.1424,-0.1437,-0.1418,-0.1418,-0.1418,-0.1368,-0.1363,-0.143,-0.143,-0.143,0,-0.0895,-0.0924,-0.0955,-0.0961,-0.0982,-0.1031,-0.1046,-0.1077,-0.1126,-0.115,-0.1159,-0.1246,-0.1282,-0.1333,-0.1371,-0.1392,-0.1382,-0.1405,-0.1423,-0.1423,-0.1421,-0.137,-0.1364,-0.1433,-0.1433,-0.1432,-0.1432,0,-0.0889,-0.0922,-0.0931,-0.0968,-0.0993,-0.1021,-0.1064,-0.1119,-0.1166,-0.1181,-0.124,-0.1276,-0.1318,-0.1355,-0.1393,-0.1429,-0.1423,-0.143,-0.1395,-0.1425,-0.137,-0.1363,-0.1437,-0.1436,-0.1435,-0.1434,0,0,-0.0853,-0.0917,-0.0916,-0.0949,-0.1006,-0.1028,-0.1094,-0.1149,-0.1176,-0.1229,-0.1246,-0.1327,-0.1341,-0.1365,-0.1411,-0.1414,-0.1412,-0.1445,-0.1443,-0.138,-0.1365,-0.1337,-0.1325,-0.1446,-0.1445,-0.1444,-0.1326,0,-0.0839,-0.0865,-0.0901,-0.0949,-0.098,-0.1054,-0.1093,-0.1154,-0.1198,-0.123,-0.127,-0.13,-0.1346,-0.138,-0.1392,-0.1413,-0.1398,-0.1442,-0.1357,-0.1352,-0.1312,-0.1318,-0.1442,-0.1321,-0.1319,-0.1318,-0.1317,0,-0.0802,-0.0843,-0.0878,-0.0963,-0.0979,-0.1026,-0.1118,-0.1145,-0.1202,-0.1218,-0.1252,-0.1288,-0.1325,-0.1347,-0.1341,-0.1384,-0.138,-0.1373,-0.1368,-0.1315,-0.1311,-0.1287,-0.1303,-0.1304,-0.1305,-0.1306,-0.1307,0,-0.0751,-0.0822,-0.0865,-0.0887,-0.0982,-0.1043,-0.1101,-0.1158,-0.1178,-0.1211,-0.1238,-0.125,-0.1277,-0.1271,-0.1307,-0.1334,-0.1274,-0.1287,-0.1231,-0.1228,-0.1265,-0.1267,-0.1247,-0.1248,-0.1248,-0.1248,-0.1249,0,-0.0705,-0.0739,-0.0864,-0.0884,-0.0946,-0.1021,-0.1052,-0.1107,-0.1158,-0.1181,-0.123,-0.1268,-0.1274,-0.1279,-0.1277,-0.1231,-0.1237,-0.1213,-0.1196,-0.1289,-0.1294,-0.1259,-0.1262,-0.1244,-0.1245,-0.1246,-0.1246,0,-0.062,-0.0687,-0.0754,-0.0884,-0.0917,-0.0963,-0.1041,-0.1062,-0.1121,-0.1166,-0.1196,-0.1273,-0.1273,-0.1254,-0.1217,-0.1187,-0.1138,-0.1119,-0.1194,-0.1186,-0.1101,-0.1108,-0.1008,-0.1006,-0.1005,-0.1003,-0.1002,0,-0.0594,-0.0616,-0.073,-0.0757,-0.0825,-0.0889,-0.0923,-0.1016,-0.1057,-0.1187,-0.1233,-0.1277,-0.1313,-0.1193,-0.1183,-0.1082,-0.1095,-0.1033,-0.1088,-0.1083,-0.1077,-0.1087,-0.1096,-0.1,-0.0999,-0.0999,-0.0998,0,-0.0558,-0.059,-0.0633,-0.0666,-0.0736,-0.0783,-0.0881,-0.0914,-0.1042,-0.1121,-0.123,-0.1247,-0.1231,-0.1175,-0.1092,-0.1049,-0.1049,-0.1015,-0.1019,-0.1071,-0.1072,-0.1069,-0.108,-0.0993,-0.0993,-0.0994,-0.0994,0,-0.0532,-0.0536,-0.0564,-0.0583,-0.0636,-0.0697,-0.0755,-0.0867,-0.093,-0.1135,-0.1167,-0.1216,-0.1254,-0.1161,-0.1111,-0.103,-0.1018,-0.0982,-0.0987,-0.0993,-0.1045,-0.1047,-0.0929,0,0,0,0,0,-0.051,-0.0469,-0.0476,-0.0509,-0.0547,-0.0589,-0.0728,-0.0808,-0.0974,-0.1032,-0.1105,-0.1111,-0.1081,-0.1094,-0.0997,-0.1059,-0.0983,-0.0942,-0.0935,-0.0961,-0.0968,-0.1032,0,0,0,0,0,0,-0.0477,-0.0471,-0.0444,-0.0427,-0.0428,-0.0503,-0.0599,-0.0736,-0.0784,-0.0942,-0.0915,-0.1029,-0.0976,-0.1086,-0.0961,-0.0957,-0.0931,-0.0964,-0.0961,-0.0957,-0.0963,-0.0968,-0.1037,0,0,0,0,0]},{"header":{"parameterUnit":"m.s-1","parameterCategory":2,"la1":30.2991,"la2":30.254,"lo1":-89.0895,"lo2":-89.0444,"dy":0.0017,"dx":0.0017,"nx":28,"ny":28,"refTime":"2023-04-25T21:00:00:Z","depth":"4","parameterNumber":3,"parameterNumberName":"V-component_of_CURRENTS"},"data":[0,0,0,0,0,0,0,0,0,0,0,0,0,0,0,0,0,0,0,0,0,0,0,0,0,0,0,0,0,0,0,0,0,0,0,0,0,0,0,0,0,0,0,0,0,0,0,0,0,0,0,0,0,0,0,0,0,0,-0.05,-0.0501,0,-0.0536,-0.0537,-0.0537,-0.051,-0.0509,-0.0508,-0.0506,-0.0471,-0.0471,-0.0471,0,0,0,0,0,0,0,0,0,0,0,0,0,-0.0428,-0.043,-0.05,-0.0501,-0.0501,-0.0536,-0.0537,-0.0538,-0.051,-0.0509,-0.0507,-0.0506,-0.0471,-0.0471,-0.0471,0,0,0,0,0,0,0,0,0,0,0,0,0,-0.0463,-0.043,-0.05,-0.0491,-0.049,-0.0536,-0.0537,-0.0538,-0.0511,-0.0509,-0.0507,-0.0505,-0.047,-0.0471,-0.0471,-0.0514,0,0,-0.0473,-0.0473,0,0,0,0,0,0,0,0,-0.0461,-0.0466,-0.0492,-0.0491,-0.0491,-0.0515,-0.0498,-0.0526,-0.0511,-0.0504,-0.0506,-0.0504,-0.048,-0.0479,-0.0493,-0.0512,-0.051,-0.0473,-0.0473,-0.0473,-0.0473,0,0,0,0,0,0,0,-0.0459,-0.0464,-0.0516,-0.0492,-0.0492,-0.0491,-0.0494,-0.0504,-0.0502,-0.0505,-0.0503,-0.0505,-0.0479,-0.0493,-0.0492,-0.051,-0.0473,-0.0473,-0.0473,-0.0473,-0.0592,-0.0594,0,0,0,0,0,0,-0.0453,-0.0462,-0.0515,-0.0517,-0.0469,-0.0494,-0.0497,-0.0511,-0.0504,-0.0501,-0.0507,-0.0504,-0.0493,-0.0492,-0.0491,-0.0541,-0.0473,-0.0473,-0.0474,-0.0589,-0.0592,-0.0595,0,0,0,0,0,0,-0.0451,-0.0458,-0.0513,-0.0488,-0.0495,-0.0497,-0.0513,-0.0512,-0.0527,-0.0506,-0.0501,-0.0521,-0.0492,-0.049,-0.0511,-0.0539,-0.0474,-0.0474,-0.0585,-0.059,-0.0594,-0.0641,0,0,0,0,0,0,-0.0449,-0.0457,-0.0473,-0.0488,-0.0496,-0.0545,-0.0515,-0.0515,-0.0531,-0.0527,-0.0517,-0.0511,-0.049,-0.051,-0.0511,-0.0538,-0.0474,-0.0582,-0.0587,-0.0593,-0.0636,-0.0646,-0.0655,0,0,0,0,0,-0.0447,-0.048,-0.0474,-0.048,-0.0515,-0.0546,-0.0552,-0.0546,-0.0533,-0.055,-0.0546,-0.0512,-0.0545,-0.0513,-0.0513,-0.0541,-0.0579,-0.0586,-0.0592,-0.0631,-0.0644,-0.0655,0,0,0,0,0,0,-0.0459,-0.0481,-0.0474,-0.0512,-0.0527,-0.0541,-0.0564,-0.0558,-0.0572,-0.0568,-0.0542,-0.0538,-0.0575,-0.0563,-0.0527,-0.0598,-0.056,-0.0567,-0.059,-0.0602,-0.0612,-0.0583,-0.0475,0,0,0,0,0,-0.0469,-0.0497,-0.0511,-0.054,-0.0554,-0.0562,-0.0576,-0.0571,-0.0582,-0.0586,-0.0585,-0.0591,-0.0607,-0.0604,-0.0623,-0.0652,-0.0594,-0.0677,-0.0687,-0.0695,-0.0677,-0.0629,-0.063,-0.0617,-0.0617,-0.0617,0,0,-0.0483,-0.0496,-0.0513,-0.0544,-0.056,-0.0585,-0.0567,-0.0596,-0.0612,-0.0581,-0.0619,-0.0631,-0.0629,-0.0666,-0.0681,-0.065,-0.067,-0.0703,-0.0709,-0.0686,-0.0635,-0.0635,-0.0636,-0.0621,-0.062,-0.062,0,0,-0.052,-0.0539,-0.0571,-0.0589,-0.0611,-0.0615,-0.0624,-0.0651,-0.066,-0.07,-0.0687,-0.0707,-0.0742,-0.0734,-0.0735,-0.0814,-0.0735,-0.0838,-0.0844,-0.0799,-0.0797,-0.0795,-0.0713,-0.0703,-0.0828,-0.0828,-0.0828,0,-0.0534,-0.0571,-0.0586,-0.0617,-0.0628,-0.0629,-0.0654,-0.0677,-0.0704,-0.0707,-0.0718,-0.0759,-0.0769,-0.0775,-0.0814,-0.0829,-0.0777,-0.079,-0.0804,-0.0802,-0.0799,-0.0714,-0.0703,-0.0831,-0.0831,-0.0831,-0.083,0,-0.0581,-0.0617,-0.0643,-0.0672,-0.0687,-0.0717,-0.0731,-0.0757,-0.0771,-0.0774,-0.0806,-0.0825,-0.0828,-0.0861,-0.0863,-0.0862,-0.0822,-0.0827,-0.0757,-0.0801,-0.0712,-0.0699,-0.0836,-0.0835,-0.0834,-0.0833,0,0,-0.0607,-0.0663,-0.0675,-0.0688,-0.0716,-0.0731,-0.0763,-0.0778,-0.0775,-0.0822,-0.0807,-0.0879,-0.0867,-0.0869,-0.0874,-0.0851,-0.0807,-0.0836,-0.0832,-0.0723,-0.0669,-0.0572,-0.0548,-0.0807,-0.0806,-0.0804,-0.0608,0,-0.0639,-0.0694,-0.0712,-0.0757,-0.078,-0.0786,-0.0805,-0.0812,-0.0819,-0.0812,-0.0821,-0.0822,-0.0873,-0.0865,-0.0859,-0.082,-0.0777,-0.0857,-0.0669,-0.0662,-0.0546,-0.0533,-0.08,-0.0598,-0.0595,-0.0592,-0.0591,0,-0.0682,-0.0704,-0.0754,-0.0778,-0.0788,-0.0813,-0.0809,-0.0827,-0.0809,-0.0803,-0.0793,-0.0781,-0.0763,-0.0798,-0.0726,-0.0771,-0.0725,-0.0694,-0.0685,-0.0563,-0.0542,-0.0551,-0.0567,-0.0568,-0.057,-0.0572,-0.0573,0,-0.0678,-0.0738,-0.077,-0.0785,-0.0811,-0.083,-0.0839,-0.083,-0.0821,-0.0779,-0.073,-0.0718,-0.0668,-0.0647,-0.0598,-0.0654,-0.0479,-0.0539,-0.0396,-0.0387,-0.0509,-0.0513,-0.0463,-0.0463,-0.0464,-0.0464,-0.0465,0,-0.07,-0.0735,-0.0779,-0.0798,-0.0825,-0.0834,-0.0845,-0.0842,-0.0798,-0.0757,-0.0721,-0.0639,-0.0628,-0.0532,-0.0532,-0.0393,-0.0414,-0.0367,-0.0326,-0.0537,-0.0546,-0.0498,-0.0504,-0.0457,-0.0459,-0.046,-0.0461,0,-0.0704,-0.0742,-0.0787,-0.0821,-0.0835,-0.0858,-0.0862,-0.0854,-0.0791,-0.0721,-0.0691,-0.0551,-0.0405,-0.0355,-0.0258,-0.0257,-0.0172,-0.0113,-0.0279,-0.0256,-0.013,-0.0142,0.0055,0.006,0.0064,0.0068,0.0071,0,-0.0709,-0.0735,-0.0801,-0.0835,-0.0867,-0.0893,-0.0904,-0.0871,-0.0846,-0.0661,-0.0614,-0.0406,-0.0322,-0.0077,-0.0042,0.0056,0.0036,0.0087,-0.0098,-0.0094,-0.0075,-0.0094,-0.0112,0.0078,0.0079,0.008,0.0081,0,-0.0707,-0.075,-0.0784,-0.0844,-0.089,-0.0909,-0.0919,-0.0882,-0.0808,-0.074,-0.0519,-0.0357,-0.0134,-0.0013,0.0116,0.0148,0.0038,0.013,0.0118,-0.0056,-0.0064,-0.0054,-0.0076,0.0097,0.0094,0.0093,0.0092,0,-0.0715,-0.0744,-0.0797,-0.085,-0.09,-0.0904,-0.0911,-0.0845,-0.0789,-0.0612,-0.0525,-0.0281,-0.0153,0.0049,0.0143,0.0225,0.0186,0.0118,0.0105,0.009,0.0016,0.0004,0.0253,0,0,0,0,0,-0.0706,-0.0739,-0.0788,-0.0847,-0.089,-0.091,-0.0902,-0.0892,-0.0813,-0.0675,-0.0603,-0.0403,-0.0137,0.0012,0.0108,0.0181,0.0179,0.0293,0.0086,0.018,0.0163,0.0076,0,0,0,0,0,0,-0.0712,-0.0759,-0.0778,-0.0817,-0.0852,-0.0881,-0.0876,-0.0831,-0.0753,-0.0655,-0.051,-0.0412,-0.0161,-0.0201,0.0103,0.0143,0.0015,0.0422,0.0423,0.019,0.0174,0.016,0.0065,0,0,0,0,0]}]]